QPF
0.18 0.17 0.17 0.26 0.26 0.17 0.13 0.12 0.12 0.13 0.12 0.11 0.09 0.04 0.04 0.07 0.08 0.06 0.07 0.10 0.08 0.05 0.03 0.02 0.02 0.01 0.01 0.00 0.00 0.00 0.00 0.01 0.01 0.01 0.01 0.01 0.00 0.01 0.01 0.01 0.01 0.01 0.01 0.00 0.00 0.01 0.01 0.00 0.01
0.14 0.16 0.22 0.31 0.22 0.14 0.14 0.12 0.09 0.07 0.09 0.08 0.06 0.03 0.02 0.02 0.02 0.03 0.05 0.08 0.06 0.03 0.01 0.02 0.02 0.01 0.01 0.00 0.00 0.00 0.00 0.00 0.00 0.01 0.01 0.01 0.01 0.01 0.01 0.01 0.01 0.01 0.01 0.01 0.01 0.01 0.01 0.01 0.01
0.20 0.22 0.26 0.31 0.23 0.18 0.15 0.09 0.06 0.04 0.04 0.05 0.07 0.03 0.02 0.02 0.01 0.02 0.04 0.05 0.03 0.01 0.01 0.01 0.03 0.02 0.01 0.00 0.00 0.00 0.00 0.00 0.00 0.01 0.01 0.01 0.02 0.02 0.02 0.02 0.02 0.03 0.02 0.01 0.01 0.01 0.01 0.01 0.01
0.21 0.26 0.27 0.24 0.19 0.13 0.09 0.09 0.07 0.05 0.03 0.02 0.04 0.05 0.02 0.01 0.00 0.01 0.01 0.01 0.01 0.01 0.01 0.01 0.03 0.02 0.01 0.01 0.01 0.00 0.00 0.00 0.00 0.01 0.01 0.01 0.01 0.02 0.02 0.03 0.02 0.03 0.02 0.02 0.02 0.02 0.02 0.02 0.02
0.28 0.31 0.25 0.18 0.16 0.13 0.12 0.12 0.14 0.07 0.04 0.02 0.02 0.04 0.02 0.01 0.00 0.00 0.01 0.01 0.01 0.00 0.00 0.00 0.01 0.01 0.01 0.01 0.00 0.00 0.00 0.00 0.01 0.01 0.01 0.01 0.02 0.02 0.02 0.03 0.02 0.02 0.03 0.03 0.03 0.02 0.02 0.02 0.02
0.34 0.32 0.24 0.15 0.16 0.16 0.15 0.12 0.09 0.06 0.06 0.03 0.03 0.03 0.03 0.02 0.01 0.00 0.00 0.01 0.01 0.00 0.00 0.00 0.01 0.01 0.00 0.00 0.00 0.00 0.00 0.00 0.00 0.00 0.01 0.01 0.01 0.02 0.02 0.02 0.02 0.03 0.04 0.03 0.03 0.02 0.02 0.02 0.02
0.29 0.24 0.16 0.12 0.13 0.14 0.09 0.07 0.06 0.10 0.11 0.09 0.06 0.04 0.03 0.02 0.00 0.00 0.00 0.00 0.01 0.01 0.00 0.00 0.00 0.00 0.00 0.00 0.00 0.00 0.00 0.00 0.00 0.00 0.00 0.00 0.00 0.01 0.01 0.01 0.02 0.02 0.04 0.04 0.03 0.03 0.03 0.04 0.03
0.29 0.24 0.12 0.11 0.15 0.18 0.11 0.06 0.05 0.07 0.08 0.06 0.02 0.02 0.02 0.01 0.00 0.00 0.00 0.00 0.00 0.01 0.00 0.00 0.00 0.00 0.00 0.00 0.00 0.00 0.00 0.00 0.00 0.00 0.00 0.00 0.00 0.00 0.01 0.01 0.01 0.02 0.03 0.03 0.03 0.04 0.04 0.05 0.05
0.30 0.25 0.13 0.13 0.17 0.19 0.09 0.04 0.03 0.03 0.03 0.02 0.01 0.01 0.01 0.00 0.00 0.00 0.01 0.01 0.00 0.00 0.00 0.00 0.00 0.00 0.00 0.00 0.00 0.00 0.00 0.00 0.00 0.00 0.00 0.00 0.00 0.00 0.00 0.01 0.01 0.02 0.02 0.02 0.03 0.03 0.04 0.06 0.06
0.26 0.18 0.16 0.19 0.17 0.15 0.06 0.04 0.02 0.03 0.02 0.02 0.02 0.01 0.01 0.00 0.00 0.00 0.00 0.00 0.00 0.00 0.00 0.00 0.00 0.00 0.00 0.00 0.00 0.00 0.00 0.00 0.00 0.00 0.00 0.00 0.00 0.00 0.00 0.01 0.01 0.02 0.03 0.03 0.03 0.03 0.04 0.05 0.03
0.16 0.14 0.18 0.21 0.17 0.12 0.06 0.04 0.02 0.02 0.02 0.02 0.01 0.01 0.01 0.00 0.00 0.00 0.00 0.00 0.00 0.00 0.00 0.00 0.00 0.00 0.00 0.00 0.00 0.00 0.00 0.00 0.00 0.00 0.00 0.00 0.00 0.00 0.00 0.00 0.01 0.01 0.02 0.01 0.02 0.03 0.02 0.03 0.02
0.12 0.09 0.11 0.09 0.08 0.09 0.09 0.07 0.03 0.02 0.02 0.02 0.01 0.00 0.00 0.00 0.00 0.00 0.00 0.00 0.00 0.00 0.00 0.00 0.00 0.00 0.00 0.00 0.00 0.00 0.00 0.00 0.00 0.00 0.00 0.00 0.00 0.00 0.00 0.00 0.00 0.00 0.01 0.01 0.01 0.01 0.01 0.02 0.02
0.10 0.11 0.09 0.05 0.04 0.05 0.04 0.04 0.02 0.02 0.02 0.02 0.01 0.00 0.00 0.00 0.00 0.00 0.00 0.00 0.00 0.00 0.00 0.00 0.00 0.00 0.00 0.00 0.00 0.00 0.00 0.00 0.00 0.00 0.00 0.00 0.00 0.00 0.00 0.00 0.00 0.01 0.01 0.01 0.01 0.01 0.01 0.03 0.05
0.10 0.07 0.05 0.05 0.03 0.03 0.02 0.02 0.02 0.02 0.02 0.01 0.01 0.00 0.00 0.00 0.00 0.00 0.00 0.00 0.00 0.00 0.00 0.00 0.00 0.00 0.00 0.00 0.00 0.00 0.00 0.00 0.00 0.00 0.00 0.00 0.00 0.00 0.00 0.00 0.01 0.01 0.01 0.01 0.01 0.01 0.01 0.02 0.03
0.15 0.10 0.06 0.04 0.03 0.02 0.03 0.03 0.03 0.03 0.02 0.02 0.01 0.00 0.00 0.00 0.00 0.00 0.00 0.00 0.00 0.00 0.00 0.00 0.00 0.00 0.00 0.00 0.00 0.00 0.00 0.00 0.00 0.00 0.00 0.00 0.00 0.00 0.00 0.00 0.00 0.00 0.01 0.01 0.01 0.00 0.01 0.01 0.02
0.14 0.12 0.07 0.04 0.03 0.04 0.04 0.02 0.02 0.03 0.02 0.02 0.01 0.00 0.00 0.00 0.00 0.00 0.00 0.00 0.00 0.00 0.00 0.00 0.00 0.00 0.00 0.00 0.00 0.00 0.00 0.00 0.00 0.00 0.00 0.00 0.00 0.00 0.00 0.00 0.00 0.00 0.01 0.01 0.01 0.01 0.01 0.01 0.01
0.17 0.13 0.08 0.05 0.05 0.04 0.04 0.01 0.01 0.01 0.02 0.01 0.01 0.00 0.00 0.00 0.00 0.00 0.00 0.00 0.00 0.00 0.00 0.00 0.00 0.00 0.00 0.00 0.00 0.00 0.00 0.00 0.00 0.00 0.00 0.00 0.00 0.00 0.00 0.00 0.00 0.00 0.00 0.00 0.01 0.01 0.01 0.01 0.01
0.09 0.07 0.05 0.07 0.06 0.05 0.04 0.01 0.01 0.01 0.01 0.01 0.00 0.00 0.00 0.00 0.00 0.00 0.00 0.00 0.00 0.00 0.00 0.00 0.00 0.00 0.00 0.00 0.00 0.00 0.00 0.00 0.00 0.00 0.00 0.00 0.00 0.00 0.00 0.00 0.00 0.00 0.00 0.00 0.01 0.01 0.02 0.02 0.01
0.07 0.06 0.06 0.03 0.03 0.03 0.03 0.01 0.01 0.01 0.01 0.01 0.00 0.00 0.00 0.01 0.00 0.00 0.00 0.00 0.00 0.00 0.00 0.00 0.00 0.00 0.00 0.00 0.00 0.00 0.00 0.00 0.00 0.00 0.00 0.00 0.00 0.00 0.00 0.00 0.00 0.00 0.00 0.01 0.01 0.03 0.04 0.02 0.02
0.08 0.05 0.05 0.03 0.02 0.01 0.01 0.00 0.00 0.01 0.00 0.00 0.00 0.00 0.00 0.00 0.01 0.00 0.00 0.00 0.00 0.00 0.00 0.00 0.00 0.00 0.00 0.00 0.00 0.00 0.00 0.00 0.00 0.00 0.00 0.00 0.00 0.00 0.00 0.00 0.00 0.00 0.01 0.01 0.01 0.02 0.03 0.03 0.03
0.07 0.04 0.03 0.02 0.01 0.01 0.01 0.00 0.00 0.00 0.00 0.00 0.00 0.00 0.00 0.00 0.01 0.00 0.00 0.00 0.00 0.00 0.00 0.00 0.00 0.00 0.00 0.00 0.00 0.00 0.00 0.00 0.00 0.00 0.00 0.00 0.00 0.00 0.00 0.00 0.00 0.00 0.01 0.01 0.01 0.02 0.02 0.04 0.04
0.05 0.03 0.01 0.01 0.01 0.01 0.01 0.00 0.00 0.00 0.00 0.00 0.00 0.00 0.00 0.01 0.01 0.00 0.00 0.00 0.00 0.00 0.00 0.00 0.00 0.00 0.00 0.00 0.00 0.00 0.00 0.00 0.00 0.00 0.00 0.00 0.00 0.00 0.00 0.00 0.00 0.00 0.00 0.00 0.01 0.02 0.02 0.02 0.02
0.02 0.01 0.01 0.00 0.00 0.00 0.00 0.01 0.00 0.00 0.00 0.00 0.00 0.00 0.00 0.00 0.00 0.00 0.00 0.00 0.00 0.00 0.00 0.00 0.00 0.00 0.00 0.00 0.00 0.00 0.00 0.00 0.00 0.00 0.00 0.00 0.00 0.00 0.00 0.00 0.00 0.00 0.00 0.00 0.00 0.02 0.02 0.02 0.02
0.01 0.00 0.00 0.00 0.00 0.00 0.00 0.00 0.00 0.00 0.00 0.00 0.00 0.00 0.00 0.00 0.00 0.00 0.00 0.00 0.00 0.00 0.00 0.00 0.00 0.00 0.00 0.00 0.00 0.00 0.00 0.00 0.00 0.00 0.00 0.00 0.00 0.00 0.00 0.00 0.00 0.00 0.00 0.00 0.00 0.01 0.03 0.02 0.02
0.00 0.00 0.01 0.01 0.01 0.01 0.00 0.00 0.00 0.00 0.00 0.00 0.00 0.00 0.00 0.00 0.00 0.00 0.00 0.00 0.00 0.00 0.00 0.00 0.00 0.00 0.00 0.00 0.00 0.00 0.00 0.00 0.00 0.00 0.00 0.00 0.00 0.00 0.00 0.00 0.00 0.00 0.00 0.00 0.00 0.00 0.01 0.01 0.02
0.00 0.00 0.01 0.02 0.01 0.01 0.00 0.00 0.00 0.00 0.00 0.00 0.00 0.00 0.00 0.00 0.00 0.00 0.00 0.00 0.00 0.00 0.00 0.00 0.00 0.00 0.00 0.00 0.00 0.00 0.00 0.00 0.00 0.00 0.00 0.00 0.00 0.00 0.00 0.00 0.00 0.00 0.00 0.00 0.00 0.00 0.00 0.01 0.01
0.00 0.00 0.00 0.00 0.00 0.00 0.00 0.00 0.00 0.00 0.00 0.00 0.00 0.00 0.00 0.00 0.00 0.00 0.00 0.00 0.00 0.00 0.00 0.00 0.00 0.00 0.00 0.00 0.00 0.00 0.00 0.00 0.00 0.00 0.00 0.00 0.00 0.00 0.00 0.00 0.00 0.00 0.00 0.00 0.00 0.00 0.00 0.00 0.00
0.00 0.00 0.00 0.00 0.00 0.00 0.00 0.00 0.00 0.00 0.00 0.00 0.00 0.00 0.00 0.00 0.00 0.00 0.00 0.00 0.00 0.00 0.00 0.00 0.00 0.00 0.00 0.00 0.00 0.00 0.00 0.00 0.00 0.00 0.00 0.00 0.00 0.00 0.00 0.00 0.00 0.00 0.00 0.00 0.00 0.00 0.00 0.00 0.00
0.00 0.00 0.00 0.00 0.00 0.00 0.00 0.00 0.00 0.00 0.00 0.00 0.00 0.00 0.00 0.00 0.00 0.00 0.00 0.00 0.00 0.00 0.00 0.00 0.00 0.00 0.00 0.00 0.00 0.00 0.00 0.00 0.00 0.00 0.00 0.00 0.00 0.00 0.00 0.00 0.00 0.00 0.00 0.00 0.00 0.01 0.01 0.00 0.00
0.00 0.00 0.00 0.00 0.00 0.00 0.00 0.01 0.00 0.00 0.00 0.00 0.00 0.00 0.00 0.00 0.00 0.00 0.00 0.00 0.00 0.00 0.00 0.00 0.00 0.00 0.00 0.00 0.00 0.00 0.00 0.00 0.00 0.00 0.00 0.00 0.00 0.00 0.00 0.00 0.00 0.00 0.00 0.00 0.00 0.00 0.00 0.01 0.01
MSLP
1011.99 1012.92 1013.99 1015.07 1016.01 1016.67 1016.96 1016.85 1016.40 1015.71 1014.93 1014.23 1013.71 1013.43 1013.40 1013.54 1013.74 1013.88 1013.88 1013.69 1013.33 1012.87 1012.40 1012.02 1011.79 1011.74 1011.84 1012.02 1012.22 1012.37 1012.43 1012.40 1012.32 1012.24 1012.21 1012.25 1012.38 1012.57 1012.79 1012.97 1013.08 1013.12 1013.09 1013.01 1012.91 1012.82 1012.76 1012.71 1012.68
1012.28 1013.34 1014.46 1015.49 1016.29 1016.75 1016.81 1016.47 1015.84 1015.03 1014.21 1013.52 1013.08 1012.90 1012.97 1013.18 1013.43 1013.58 1013.57 1013.37 1013.01 1012.56 1012.14 1011.83 1011.68 1011.71 1011.89 1012.13 1012.36 1012.53 1012.60 1012.57 1012.47 1012.38 1012.32 1012.33 1012.42 1012.57 1012.74 1012.89 1012.99 1013.02 1013.00 1012.95 1012.88 1012.83 1012.79 1012.76 1012.73
1012.73 1013.86 1014.95 1015.86 1016.47 1016.69 1016.50 1015.95 1015.16 1014.27 1013.46 1012.85 1012.52 1012.47 1012.63 1012.91 1013.19 1013.34 1013.30 1013.08 1012.72 1012.31 1011.95 1011.71 1011.66 1011.77 1012.01 1012.30 1012.56 1012.73 1012.79 1012.74 1012.62 1012.50 1012.40 1012.37 1012.41 1012.50 1012.62 1012.72 1012.78 1012.81 1012.80 1012.77 1012.75 1012.74 1012.75 1012.76 1012.75
1013.33 1014.46 1015.46 1016.20 1016.56 1016.52 1016.08 1015.35 1014.45 1013.56 1012.81 1012.32 1012.12 1012.20 1012.46 1012.80 1013.08 1013.21 1013.15 1012.91 1012.56 1012.19 1011.88 1011.73 1011.75 1011.93 1012.22 1012.52 1012.77 1012.93 1012.95 1012.88 1012.73 1012.57 1012.44 1012.37 1012.35 1012.39 1012.44 1012.49 1012.51 1012.52 1012.52 1012.52 1012.55 1012.60 1012.66 1012.71 1012.75
1014.04 1015.12 1015.97 1016.48 1016.58 1016.28 1015.63 1014.76 1013.81 1012.95 1012.32 1011.98 1011.93 1012.14 1012.49 1012.86 1013.14 1013.24 1013.15 1012.89 1012.56 1012.22 1011.99 1011.90 1011.98 1012.19 1012.48 1012.77 1012.98 1013.08 1013.06 1012.94 1012.77 1012.58 1012.43 1012.33 1012.28 1012.26 1012.26 1012.25 1012.24 1012.22 1012.22 1012.25 1012.32 1012.42 1012.54 1012.65 1012.73
1014.78 1015.75 1016.41 1016.68 1016.52 1015.99 1015.17 1014.21 1013.27 1012.51 1012.03 1011.85 1011.96 1012.29 1012.70 1013.08 1013.34 1013.40 1013.28 1013.02 1012.70 1012.41 1012.23 1012.19 1012.31 1012.52 1012.78 1013.00 1013.14 1013.17 1013.09 1012.93 1012.73 1012.55 1012.39 1012.29 1012.22 1012.18 1012.13 1012.08 1012.02 1011.98 1011.96 1012.00 1012.10 1012.24 1012.40 1012.56 1012.68
1015.46 1016.29 1016.74 1016.75 1016.36 1015.64 1014.71 1013.73 1012.86 1012.23 1011.91 1011.91 1012.16 1012.57 1013.02 1013.40 1013.62 1013.64 1013.49 1013.23 1012.94 1012.70 1012.57 1012.57 1012.69 1012.87 1013.06 1013.20 1013.25 1013.19 1013.05 1012.86 1012.66 1012.49 1012.36 1012.28 1012.23 1012.17 1012.10 1012.01 1011.92 1011.83 1011.79 1011.82 1011.92 1012.08 1012.27 1012.46 1012.61
1016.01 1016.66 1016.89 1016.68 1016.10 1015.24 1014.26 1013.31 1012.55 1012.08 1011.92 1012.07 1012.43 1012.91 1013.36 1013.71 1013.88 1013.87 1013.70 1013.45 1013.20 1013.01 1012.92 1012.95 1013.06 1013.20 1013.31 1013.35 1013.30 1013.16 1012.97 1012.76 1012.58 1012.45 1012.37 1012.34 1012.31 1012.27 1012.19 1012.07 1011.93 1011.81 1011.73 1011.72 1011.80 1011.95 1012.14 1012.33 1012.50
1016.36 1016.83 1016.85 1016.45 1015.72 1014.79 1013.81 1012.95 1012.31 1011.99 1011.99 1012.26 1012.69 1013.18 1013.62 1013.92 1014.04 1013.99 1013.82 1013.60 1013.40 1013.27 1013.23 1013.28 1013.37 1013.46 1013.50 1013.45 1013.31 1013.11 1012.89 1012.68 1012.53 1012.46 1012.45 1012.47 1012.49 1012.47 1012.38 1012.24 1012.07 1011.89 1011.77 1011.71 1011.75 1011.86 1012.02 1012.20 1012.35
1016.52 1016.81 1016.65 1016.10 1015.27 1014.32 1013.38 1012.62 1012.12 1011.94 1012.05 1012.39 1012.85 1013.33 1013.72 1013.96 1014.04 1013.97 1013.81 1013.63 1013.49 1013.42 1013.43 1013.51 1013.60 1013.65 1013.63 1013.51 1013.32 1013.08 1012.85 1012.66 1012.56 1012.54 1012.59 1012.67 1012.72 1012.72 1012.64 1012.48 1012.27 1012.06 1011.88 1011.78 1011.76 1011.82 1011.93 1012.07 1012.19
1016.53 1016.64 1016.33 1015.68 1014.80 1013.86 1013.00 1012.34 1011.95 1011.88 1012.06 1012.43 1012.88 1013.30 1013.63 1013.82 1013.85 1013.77 1013.64 1013.52 1013.45 1013.45 1013.52 1013.63 1013.72 1013.76 1013.70 1013.56 1013.34 1013.10 1012.87 1012.72 1012.66 1012.69 1012.79 1012.90 1012.98 1012.99 1012.92 1012.75 1012.52 1012.27 1012.06 1011.90 1011.82 1011.82 1011.87 1011.95 1012.03
1016.45 1016.41 1015.98 1015.25 1014.37 1013.47 1012.68 1012.12 1011.82 1011.81 1012.02 1012.36 1012.76 1013.11 1013.37 1013.50 1013.51 1013.44 1013.35 1013.29 1013.29 1013.36 1013.49 1013.63 1013.75 1013.79 1013.73 1013.59 1013.39 1013.17 1012.97 1012.86 1012.83 1012.89 1013.00 1013.13 1013.22 1013.23 1013.16 1012.99 1012.76 1012.50 1012.27 1012.07 1011.95 1011.89 1011.87 1011.88 1011.90
1016.34 1016.17 1015.65 1014.89 1014.02 1013.18 1012.47 1011.98 1011.73 1011.73 1011.92 1012.21 1012.52 1012.79 1012.98 1013.07 1013.07 1013.03 1012.99 1012.99 1013.05 1013.19 1013.36 1013.54 1013.68 1013.75 1013.72 1013.62 1013.46 1013.28 1013.14 1013.05 1013.05 1013.11 1013.22 1013.33 1013.40 1013.41 1013.33 1013.18 1012.96 1012.72 1012.49 1012.29 1012.13 1012.02 1011.94 1011.88 1011.83
1016.24 1015.97 1015.39 1014.63 1013.79 1013.01 1012.36 1011.92 1011.69 1011.66 1011.78 1011.99 1012.21 1012.40 1012.52 1012.58 1012.59 1012.58 1012.60 1012.66 1012.78 1012.95 1013.16 1013.37 1013.54 1013.64 1013.67 1013.63 1013.54 1013.43 1013.34 1013.28 1013.28 1013.33 1013.40 1013.47 1013.51 1013.51 1013.43 1013.30 1013.13 1012.93 1012.73 1012.54 1012.37 1012.22 1012.08 1011.95 1011.83
1016.16 1015.81 1015.21 1014.47 1013.69 1012.96 1012.37 1011.94 1011.69 1011.61 1011.64 1011.74 1011.86 1011.97 1012.05 1012.10 1012.13 1012.17 1012.23 1012.34 1012.50 1012.70 1012.92 1013.14 1013.34 1013.48 1013.58 1013.61 1013.61 1013.58 1013.54 1013.52 1013.52 1013.53 1013.55 1013.57 1013.57 1013.54 1013.47 1013.38 1013.26 1013.12 1012.97 1012.82 1012.65 1012.48 1012.30 1012.11 1011.91
1016.06 1015.67 1015.07 1014.38 1013.67 1013.01 1012.45 1012.03 1011.74 1011.57 1011.49 1011.48 1011.50 1011.55 1011.60 1011.66 1011.72 1011.81 1011.92 1012.06 1012.23 1012.43 1012.65 1012.87 1013.08 1013.27 1013.43 1013.56 1013.65 1013.71 1013.74 1013.74 1013.73 1013.71 1013.67 1013.63 1013.58 1013.53 1013.48 1013.43 1013.38 1013.31 1013.23 1013.11 1012.97 1012.79 1012.57 1012.33 1012.07
1015.90 1015.50 1014.95 1014.33 1013.70 1013.11 1012.60 1012.16 1011.81 1011.55 1011.35 1011.23 1011.15 1011.14 1011.17 1011.25 1011.36 1011.50 1011.65 1011.82 1011.99 1012.18 1012.37 1012.58 1012.80 1013.03 1013.26 1013.47 1013.66 1013.81 1013.91 1013.94 1013.93 1013.87 1013.78 1013.68 1013.59 1013.53 1013.49 1013.48 1013.49 1013.49 1013.47 1013.41 1013.29 1013.11 1012.87 1012.60 1012.31
1015.63 1015.26 1014.80 1014.29 1013.77 1013.27 1012.79 1012.35 1011.93 1011.55 1011.23 1010.99 1010.82 1010.75 1010.77 1010.87 1011.03 1011.21 1011.41 1011.59 1011.77 1011.93 1012.10 1012.28 1012.51 1012.76 1013.05 1013.35 1013.63 1013.87 1014.03 1014.11 1014.10 1014.02 1013.89 1013.75 1013.63 1013.55 1013.52 1013.55 1013.61 1013.67 1013.71 1013.68 1013.59 1013.42 1013.18 1012.89 1012.59
1015.24 1014.96 1014.62 1014.27 1013.89 1013.49 1013.06 1012.60 1012.10 1011.61 1011.15 1010.78 1010.51 1010.38 1010.38 1010.50 1010.70 1010.93 1011.17 1011.37 1011.55 1011.69 1011.83 1012.00 1012.22 1012.50 1012.84 1013.21 1013.57 1013.89 1014.13 1014.25 1014.25 1014.16 1014.01 1013.84 1013.69 1013.60 1013.59 1013.64 1013.73 1013.83 1013.91 1013.91 1013.84 1013.68 1013.45 1013.18 1012.90
1014.77 1014.62 1014.47 1014.30 1014.09 1013.81 1013.44 1012.95 1012.37 1011.75 1011.14 1010.62 1010.23 1010.02 1009.99 1010.11 1010.34 1010.63 1010.91 1011.14 1011.33 1011.47 1011.59 1011.74 1011.96 1012.26 1012.63 1013.06 1013.49 1013.88 1014.17 1014.34 1014.37 1014.28 1014.13 1013.94 1013.78 1013.68 1013.67 1013.73 1013.84 1013.96 1014.05 1014.08 1014.02 1013.88 1013.68 1013.45 1013.21
1014.28 1014.32 1014.39 1014.45 1014.43 1014.28 1013.96 1013.45 1012.78 1012.00 1011.22 1010.53 1010.00 1009.68 1009.59 1009.71 1009.96 1010.29 1010.61 1010.89 1011.10 1011.25 1011.37 1011.52 1011.74 1012.04 1012.44 1012.91 1013.38 1013.82 1014.16 1014.37 1014.43 1014.36 1014.21 1014.03 1013.87 1013.77 1013.75 1013.81 1013.93 1014.05 1014.14 1014.17 1014.12 1014.01 1013.84 1013.66 1013.50
1013.87 1014.14 1014.47 1014.77 1014.96 1014.94 1014.67 1014.12 1013.33 1012.39 1011.42 1010.53 1009.83 1009.38 1009.21 1009.29 1009.55 1009.91 1010.28 1010.61 1010.86 1011.03 1011.18 1011.33 1011.54 1011.85 1012.26 1012.74 1013.24 1013.71 1014.08 1014.32 1014.41 1014.37 1014.23 1014.07 1013.92 1013.82 1013.81 1013.87 1013.97 1014.08 1014.17 1014.19 1014.16 1014.07 1013.94 1013.82 1013.74
1013.62 1014.15 1014.75 1015.30 1015.67 1015.78 1015.53 1014.93 1014.02 1012.90 1011.71 1010.62 1009.73 1009.13 1008.86 1008.88 1009.13 1009.51 1009.92 1010.30 1010.60 1010.82 1010.99 1011.15 1011.37 1011.67 1012.07 1012.55 1013.05 1013.52 1013.91 1014.17 1014.28 1014.27 1014.17 1014.03 1013.91 1013.83 1013.81 1013.87 1013.97 1014.07 1014.15 1014.17 1014.15 1014.08 1014.00 1013.94 1013.92
1013.59 1014.38 1015.23 1015.99 1016.54 1016.72 1016.49 1015.81 1014.76 1013.46 1012.07 1010.76 1009.68 1008.93 1008.54 1008.49 1008.71 1009.10 1009.55 1009.97 1010.32 1010.58 1010.78 1010.96 1011.18 1011.47 1011.86 1012.31 1012.79 1013.25 1013.64 1013.91 1014.06 1014.08 1014.02 1013.91 1013.82 1013.76 1013.76 1013.83 1013.92 1014.02 1014.09 1014.12 1014.11 1014.07 1014.02 1014.01 1014.05
1013.79 1014.79 1015.84 1016.78 1017.43 1017.67 1017.41 1016.65 1015.47 1013.99 1012.42 1010.92 1009.67 1008.77 1008.27 1008.14 1008.32 1008.70 1009.16 1009.62 1010.00 1010.30 1010.53 1010.73 1010.95 1011.23 1011.58 1012.00 1012.46 1012.90 1013.28 1013.57 1013.73 1013.79 1013.77 1013.71 1013.65 1013.63 1013.66 1013.73 1013.84 1013.95 1014.03 1014.07 1014.07 1014.05 1014.03 1014.05 1014.12
1014.14 1015.31 1016.49 1017.52 1018.22 1018.45 1018.15 1017.30 1016.00 1014.39 1012.67 1011.04 1009.66 1008.64 1008.04 1007.84 1007.97 1008.33 1008.79 1009.25 1009.65 1009.97 1010.22 1010.43 1010.64 1010.91 1011.24 1011.63 1012.06 1012.48 1012.85 1013.14 1013.33 1013.43 1013.45 1013.43 1013.42 1013.44 1013.50 1013.60 1013.73 1013.85 1013.95 1014.02 1014.04 1014.04 1014.04 1014.07 1014.14
1014.58 1015.81 1017.04 1018.07 1018.75 1018.93 1018.55 1017.63 1016.25 1014.56 1012.76 1011.05 1009.60 1008.52 1007.86 1007.60 1007.68 1007.99 1008.42 1008.87 1009.27 1009.59 1009.83 1010.04 1010.25 1010.50 1010.81 1011.19 1011.59 1012.00 1012.38 1012.68 1012.89 1013.02 1013.09 1013.12 1013.15 1013.20 1013.30 1013.43 1013.59 1013.74 1013.87 1013.96 1014.01 1014.03 1014.04 1014.07 1014.13
1014.99 1016.19 1017.36 1018.31 1018.89 1018.98 1018.52 1017.54 1016.13 1014.43 1012.63 1010.93 1009.49 1008.40 1007.71 1007.42 1007.46 1007.72 1008.09 1008.49 1008.85 1009.14 1009.37 1009.57 1009.77 1010.02 1010.32 1010.68 1011.09 1011.50 1011.88 1012.20 1012.44 1012.60 1012.71 1012.78 1012.85 1012.94 1013.06 1013.23 1013.41 1013.59 1013.75 1013.88 1013.96 1014.00 1014.02 1014.04 1014.08
1015.29 1016.36 1017.37 1018.15 1018.58 1018.55 1018.02 1017.01 1015.63 1013.99 1012.29 1010.68 1009.32 1008.29 1007.63 1007.32 1007.31 1007.50 1007.80 1008.13 1008.42 1008.66 1008.85 1009.03 1009.22 1009.46 1009.77 1010.14 1010.56 1010.98 1011.39 1011.73 1012.00 1012.19 1012.33 1012.43 1012.53 1012.64 1012.79 1012.97 1013.17 1013.38 1013.58 1013.73 1013.84 1013.91 1013.94 1013.96 1013.98
1015.42 1016.29 1017.07 1017.64 1017.88 1017.71 1017.12 1016.13 1014.82 1013.32 1011.78 1010.34 1009.12 1008.20 1007.60 1007.30 1007.25 1007.36 1007.57 1007.79 1007.99 1008.15 1008.29 1008.43 1008.62 1008.86 1009.18 1009.57 1010.01 1010.46 1010.89 1011.27 1011.57 1011.79 1011.95 1012.07 1012.18 1012.31 1012.46 1012.65 1012.87 1013.09 1013.31 1013.50 1013.64 1013.73 1013.79 1013.81 1013.82
Thickness
5788 5786 5782 5768 5750 5737 5735 5747 5755 5759 5767 5778 5784 5780 5770 5764 5759 5753 5774 5782 5780 5777 5775 5773 5772 5770 5768 5767 5765 5764 5763 5762 5761 5760 5759 5759 5758 5757 5756 5756 5756 5755 5756 5756 5756 5756 5756 5756 5757
5786 5783 5773 5758 5740 5728 5736 5750 5755 5765 5776 5782 5783 5779 5772 5766 5773 5772 5775 5778 5778 5775 5773 5771 5769 5767 5765 5764 5762 5761 5760 5759 5758 5757 5756 5755 5754 5754 5753 5752 5752 5752 5752 5752 5752 5752 5752 5753 5753
5785 5780 5762 5748 5737 5732 5741 5755 5762 5774 5783 5782 5776 5776 5770 5766 5773 5773 5776 5777 5776 5773 5771 5769 5766 5764 5762 5760 5759 5758 5756 5755 5754 5753 5752 5751 5750 5750 5749 5748 5747 5747 5748 5748 5748 5748 5749 5749 5750
5778 5767 5757 5742 5738 5746 5753 5760 5767 5771 5778 5782 5775 5765 5768 5777 5778 5777 5778 5776 5773 5770 5768 5766 5764 5762 5760 5758 5756 5755 5753 5752 5751 5750 5749 5747 5746 5745 5745 5744 5744 5743 5743 5743 5744 5744 5745 5745 5746
5772 5756 5743 5735 5742 5753 5761 5768 5771 5769 5773 5776 5772 5759 5759 5774 5781 5779 5777 5774 5771 5768 5766 5764 5762 5760 5758 5756 5754 5752 5751 5749 5748 5747 5745 5744 5743 5742 5741 5740 5740 5740 5740 5739 5740 5740 5741 5741 5742
5757 5749 5734 5730 5741 5754 5762 5770 5771 5769 5771 5773 5769 5758 5757 5772 5775 5775 5775 5772 5770 5767 5764 5762 5760 5758 5756 5754 5752 5750 5749 5747 5746 5744 5743 5741 5740 5739 5738 5737 5737 5736 5736 5735 5736 5736 5737 5737 5738
5751 5742 5735 5737 5740 5748 5761 5772 5769 5768 5769 5773 5773 5756 5757 5767 5773 5775 5774 5771 5769 5766 5763 5760 5758 5756 5754 5753 5751 5749 5747 5745 5743 5742 5740 5739 5737 5736 5735 5734 5733 5733 5732 5731 5732 5732 5732 5733 5734
5756 5743 5736 5736 5739 5745 5763 5772 5775 5774 5772 5782 5778 5758 5754 5765 5774 5773 5771 5768 5765 5763 5761 5759 5757 5755 5753 5751 5749 5747 5745 5743 5742 5740 5739 5737 5735 5734 5732 5731 5730 5729 5728 5728 5728 5728 5728 5729 5730
5758 5735 5727 5735 5738 5745 5761 5765 5774 5783 5778 5777 5778 5773 5773 5774 5772 5767 5763 5761 5760 5759 5759 5758 5756 5754 5752 5749 5748 5746 5744 5742 5740 5738 5736 5734 5732 5730 5729 5728 5726 5725 5724 5724 5724 5724 5724 5725 5726
5746 5728 5734 5747 5750 5750 5760 5764 5770 5770 5766 5765 5768 5772 5775 5772 5767 5761 5757 5755 5755 5755 5756 5757 5755 5752 5750 5749 5746 5744 5742 5740 5737 5735 5733 5731 5729 5727 5725 5724 5722 5721 5720 5720 5719 5719 5720 5721 5722
5744 5736 5744 5753 5758 5759 5760 5765 5773 5764 5757 5762 5762 5765 5768 5766 5762 5759 5757 5756 5756 5756 5757 5756 5754 5752 5749 5747 5745 5742 5740 5737 5735 5733 5730 5728 5725 5723 5721 5719 5717 5716 5715 5714 5714 5714 5714 5715 5717
5744 5748 5752 5755 5763 5763 5762 5766 5768 5767 5768 5776 5775 5772 5768 5763 5760 5759 5757 5756 5756 5755 5756 5756 5754 5751 5748 5746 5744 5741 5738 5735 5733 5730 5728 5725 5722 5719 5716 5714 5712 5710 5709 5708 5707 5708 5709 5710 5712
5742 5747 5756 5761 5765 5766 5766 5765 5766 5769 5778 5779 5775 5770 5766 5764 5762 5762 5762 5759 5757 5755 5755 5754 5753 5750 5747 5745 5742 5740 5736 5733 5730 5727 5724 5722 5718 5714 5712 5709 5707 5705 5704 5702 5702 5702 5703 5705 5707
5743 5747 5752 5758 5760 5764 5761 5762 5763 5766 5776 5773 5769 5766 5766 5764 5764 5761 5759 5757 5756 5755 5754 5753 5752 5749 5746 5743 5740 5738 5734 5731 5727 5724 5721 5718 5715 5711 5708 5705 5702 5700 5699 5698 5697 5697 5698 5699 5702
5743 5738 5743 5751 5756 5760 5759 5750 5758 5769 5772 5767 5766 5766 5766 5765 5765 5763 5762 5759 5758 5756 5755 5753 5751 5748 5745 5742 5739 5736 5732 5728 5724 5721 5718 5715 5711 5708 5704 5701 5698 5696 5694 5694 5693 5693 5693 5695 5697
5733 5727 5723 5741 5753 5758 5749 5735 5758 5770 5768 5762 5762 5763 5763 5764 5766 5766 5765 5763 5760 5757 5754 5753 5752 5747 5744 5741 5737 5734 5730 5726 5722 5718 5715 5712 5708 5705 5701 5697 5694 5692 5691 5689 5688 5688 5688 5689 5692
5715 5710 5716 5733 5751 5753 5747 5740 5760 5769 5766 5761 5761 5761 5762 5762 5764 5765 5766 5764 5761 5758 5754 5751 5749 5746 5743 5739 5735 5731 5727 5723 5719 5716 5712 5709 5706 5702 5699 5694 5691 5689 5687 5686 5685 5685 5685 5685 5688
5705 5709 5716 5725 5744 5747 5742 5744 5758 5766 5765 5762 5761 5760 5760 5760 5764 5766 5765 5764 5761 5758 5754 5751 5747 5744 5741 5737 5733 5728 5724 5720 5717 5714 5710 5707 5704 5700 5697 5693 5689 5687 5684 5682 5681 5681 5682 5683 5685
5720 5718 5718 5729 5747 5743 5740 5744 5755 5763 5762 5761 5760 5759 5760 5762 5766 5766 5764 5762 5758 5755 5752 5748 5745 5742 5738 5734 5728 5723 5719 5716 5714 5711 5709 5705 5702 5698 5695 5691 5688 5685 5682 5680 5679 5679 5678 5679 5683
5722 5718 5720 5732 5747 5744 5739 5743 5757 5762 5764 5766 5765 5763 5763 5761 5760 5760 5760 5758 5756 5753 5750 5747 5744 5741 5738 5734 5729 5724 5720 5715 5712 5710 5707 5704 5700 5697 5694 5690 5686 5683 5680 5678 5677 5676 5675 5676 5678
5720 5719 5723 5727 5740 5745 5738 5734 5748 5762 5768 5769 5770 5769 5767 5765 5761 5759 5757 5755 5754 5751 5749 5748 5743 5740 5737 5734 5729 5723 5718 5713 5709 5707 5704 5702 5699 5696 5692 5689 5685 5682 5679 5677 5676 5675 5673 5672 5674
5715 5734 5735 5734 5723 5716 5728 5708 5734 5749 5758 5763 5765 5765 5765 5767 5764 5760 5758 5754 5753 5752 5751 5748 5743 5740 5737 5733 5728 5722 5715 5709 5707 5705 5703 5701 5698 5695 5691 5688 5685 5682 5679 5676 5675 5674 5673 5672 5671
5731 5744 5738 5734 5724 5714 5719 5710 5721 5743 5747 5755 5761 5764 5766 5766 5765 5762 5760 5758 5755 5753 5750 5747 5743 5739 5736 5732 5728 5721 5715 5711 5708 5705 5702 5699 5696 5694 5691 5688 5684 5681 5679 5677 5675 5674 5672 5671 5671
5744 5736 5729 5719 5710 5697 5714 5709 5713 5730 5746 5754 5761 5763 5765 5765 5764 5763 5761 5757 5753 5751 5748 5745 5741 5737 5735 5731 5727 5722 5717 5712 5708 5704 5701 5697 5694 5692 5690 5687 5684 5682 5679 5677 5676 5674 5673 5671 5671
5734 5710 5690 5689 5683 5691 5715 5713 5716 5743 5756 5760 5760 5762 5764 5763 5761 5758 5755 5752 5749 5747 5746 5743 5739 5736 5733 5730 5726 5723 5718 5713 5709 5705 5701 5697 5693 5691 5689 5687 5684 5682 5679 5678 5676 5674 5673 5672 5670
5729 5713 5690 5680 5680 5689 5708 5709 5726 5753 5761 5764 5765 5764 5763 5760 5759 5758 5756 5753 5750 5748 5745 5742 5739 5735 5732 5729 5726 5723 5719 5714 5710 5707 5703 5699 5695 5693 5691 5688 5685 5683 5680 5678 5676 5674 5673 5671 5670
5729 5717 5715 5696 5694 5687 5696 5716 5735 5752 5753 5756 5758 5759 5757 5758 5757 5756 5755 5753 5751 5748 5746 5744 5739 5736 5733 5730 5726 5723 5719 5716 5712 5709 5705 5701 5698 5695 5692 5689 5686 5683 5681 5679 5676 5674 5673 5671 5670
5742 5728 5706 5696 5683 5676 5687 5700 5708 5732 5740 5747 5750 5751 5754 5756 5756 5755 5754 5753 5752 5750 5748 5744 5741 5737 5734 5730 5727 5724 5720 5717 5713 5709 5705 5702 5699 5697 5693 5690 5687 5684 5681 5679 5676 5674 5673 5671 5670
5735 5730 5711 5692 5687 5675 5673 5690 5728 5732 5739 5743 5747 5751 5753 5754 5755 5755 5755 5754 5752 5749 5746 5742 5739 5736 5733 5730 5727 5724 5720 5717 5713 5710 5706 5703 5700 5697 5694 5691 5687 5684 5681 5679 5676 5674 5673 5671 5669
5739 5730 5713 5694 5689 5682 5674 5690 5739 5739 5743 5746 5748 5752 5755 5756 5756 5755 5754 5751 5748 5746 5744 5741 5739 5736 5733 5731 5727 5723 5720 5716 5712 5709 5707 5704 5701 5698 5695 5691 5688 5685 5682 5679 5676 5674 5672 5670 5669